Weather History for KTPA - February, 2014

Change the Weather History Date:

Thursday, February 13, 2014

  Actual Average Record
Temperature  
Mean Temperature 57 °F 63 °F  
Max Temperature 66 °F 72 °F 85 °F (1959)
Min Temperature 47 °F 54 °F 26 °F (1899)
Degree Days  
Heating Degree Days 8 4  
Month to date heating degree days 34 59  
Since 1 July heating degree days 352 424  
Cooling Degree Days 0 2  
Month to date cooling degree days 33 26  
Year to date cooling degree days 54 76  
Growing Degree Days 4 (Base 50)    
Moisture  
Dew Point 50 °F    
Average Humidity 75    
Maximum Humidity 93    
Minimum Humidity 57    
Precipitation  
Precipitation 0.01 in 0.11 in 1.44 in (1947)
Month to date precipitation 1.36 1.33  
Year to date precipitation 4.50 3.56  
Sea Level Pressure  
Sea Level Pressure 29.87 in    
Wind  
Wind Speed 14 mph (WNW)    
Max Wind Speed 23 mph    
Max Gust Speed 31 mph    
Visibility 10 miles    
Events Rain    
T = Trace of Precipitation, MM = Missing Value Source: NWS Daily Summary

Daily Weather History Graph

Daily Weather History Graph

Search for Another Location

Airport or City:

Trip Planner

Search our weather history database for the weather conditions in past years. The results will help you decide how hot, cold, wet, or windy it might be!

Date:

Astronomy

Feb. 13, 2014 Rise Set
Actual Time 7:09 AM EST 6:19 PM EST
Civil Twilight 6:45 AM EST 6:43 PM EST
Nautical Twilight 6:17 AM EST 7:11 PM EST
Astronomical Twilight 5:50 AM EST 7:38 PM EST
Moon 5:26 PM EST (2/13) 6:00 AM EST (2/13)
Length of Visible Light 11h 58m
Length of Day
11h 10m
Waxing Gibbous, 98% of the Moon is Illuminated
Feb 13
Waxing Gibbous
Feb 14
Full
Feb 22
Last Quarter
Mar 1
New
Mar 8
First Quarter

Hourly Weather History & Observations

Time (EST) Temp. Dew Point Humidity Pressure Visibility Wind Dir Wind Speed Gust Speed Precip Events Conditions
12:28 AM 66.0 °F 62.1 °F 87% 29.74 in 10.0 mi SSW 17.3 mph 24.2 mph N/A   Overcast
12:53 AM 66.0 °F 63.0 °F 90% 29.75 in 5.0 mi SW 19.6 mph 25.3 mph 0.00 in Rain Light Rain
12:58 AM 64.9 °F 63.0 °F 93% 29.75 in 3.0 mi WSW 19.6 mph 29.9 mph 0.00 in Rain Light Rain
1:18 AM 64.9 °F 62.1 °F 90% 29.76 in 10.0 mi West 18.4 mph - 0.01 in   Overcast
1:20 AM 64.9 °F 62.1 °F 90% 29.76 in 10.0 mi West 17.3 mph - 0.01 in   Overcast
1:53 AM 64.0 °F 61.0 °F 90% 29.76 in 9.0 mi West 18.4 mph - 0.01 in   Overcast
2:18 AM 63.0 °F 57.9 °F 84% 29.76 in 9.0 mi West 19.6 mph 26.5 mph N/A   Overcast
2:53 AM 63.0 °F 55.9 °F 78% 29.75 in 10.0 mi West 16.1 mph 24.2 mph N/A   Overcast
3:53 AM 62.1 °F 55.0 °F 78% 29.76 in 10.0 mi West 16.1 mph - N/A   Mostly Cloudy
4:26 AM 61.0 °F 55.0 °F 81% 29.77 in 9.0 mi WNW 16.1 mph 27.6 mph 0.00 in Rain Light Rain
4:53 AM 60.1 °F 55.0 °F 83% 29.78 in 10.0 mi NW 19.6 mph 26.5 mph 0.00 in   Overcast
5:20 AM 59.0 °F 55.0 °F 87% 29.79 in 10.0 mi WNW 12.7 mph - N/A   Overcast
5:33 AM 59.0 °F 55.0 °F 87% 29.80 in 9.0 mi WNW 12.7 mph - 0.00 in Rain Light Rain
5:53 AM 57.0 °F 54.0 °F 89% 29.81 in 6.0 mi NW 19.6 mph 27.6 mph 0.00 in Rain Light Rain
6:53 AM 55.0 °F 52.0 °F 89% 29.84 in 10.0 mi NW 15.0 mph 21.9 mph 0.00 in   Overcast
7:28 AM 55.0 °F 50.0 °F 83% 29.86 in 10.0 mi NW 13.8 mph 19.6 mph N/A   Overcast
7:53 AM 55.0 °F 50.0 °F 83% 29.87 in 10.0 mi NW 13.8 mph 19.6 mph N/A   Overcast
8:41 AM 55.0 °F 48.9 °F 80% 29.89 in 10.0 mi WNW 12.7 mph 23.0 mph N/A   Overcast
8:47 AM 55.4 °F 48.2 °F 77% 29.89 in 10.0 mi WNW 15.0 mph 23.0 mph N/A   Overcast
8:53 AM 55.0 °F 48.0 °F 77% 29.89 in 10.0 mi WNW 15.0 mph 21.9 mph N/A   Mostly Cloudy
8:56 AM 55.9 °F 48.0 °F 75% 29.89 in 10.0 mi NW 13.8 mph 21.9 mph N/A   Mostly Cloudy
9:53 AM 57.0 °F 46.9 °F 69% 29.91 in 10.0 mi WNW 20.7 mph 28.8 mph N/A   Scattered Clouds
10:10 AM 55.9 °F 46.0 °F 69% 29.92 in 10.0 mi WNW 18.4 mph 29.9 mph N/A   Mostly Cloudy
10:22 AM 57.0 °F 46.0 °F 67% 29.92 in 10.0 mi WNW 19.6 mph 25.3 mph N/A   Scattered Clouds
10:46 AM 57.0 °F 46.0 °F 67% 29.92 in 10.0 mi NW 18.4 mph 29.9 mph N/A   Mostly Cloudy
10:53 AM 57.0 °F 46.0 °F 67% 29.93 in 10.0 mi WNW 17.3 mph 29.9 mph N/A   Mostly Cloudy
11:39 AM 57.9 °F 46.0 °F 65% 29.92 in 10.0 mi WNW 18.4 mph 26.5 mph N/A   Scattered Clouds
11:53 AM 57.9 °F 46.0 °F 65% 29.93 in 10.0 mi NW 17.3 mph 23.0 mph N/A   Scattered Clouds
12:53 PM 57.9 °F 45.0 °F 62% 29.91 in 10.0 mi WNW 15.0 mph 27.6 mph N/A   Scattered Clouds
1:53 PM 59.0 °F 45.0 °F 60% 29.89 in 10.0 mi WNW 17.3 mph 27.6 mph N/A   Scattered Clouds
2:53 PM 57.9 °F 46.0 °F 65% 29.89 in 10.0 mi WNW 17.3 mph 29.9 mph N/A   Scattered Clouds
3:53 PM 57.0 °F 45.0 °F 64% 29.90 in 10.0 mi West 19.6 mph 25.3 mph N/A   Partly Cloudy
4:53 PM 55.0 °F 45.0 °F 69% 29.92 in 10.0 mi WNW 15.0 mph - N/A   Scattered Clouds
5:53 PM 53.1 °F 45.0 °F 74% 29.94 in 10.0 mi WNW 8.1 mph 18.4 mph N/A   Partly Cloudy
6:53 PM 51.1 °F 44.1 °F 77% 29.95 in 10.0 mi NW 6.9 mph - N/A   Partly Cloudy
7:53 PM 48.9 °F 43.0 °F 80% 29.98 in 10.0 mi NW 4.6 mph - N/A   Partly Cloudy
8:53 PM 48.9 °F 43.0 °F 80% 30.00 in 10.0 mi NNW 4.6 mph - N/A   Partly Cloudy
9:53 PM 48.9 °F 43.0 °F 80% 30.02 in 10.0 mi Calm Calm - N/A   Partly Cloudy
10:53 PM 48.9 °F 43.0 °F 80% 30.01 in 10.0 mi NNW 4.6 mph - N/A   Clear
11:53 PM 48.0 °F 44.1 °F 86% 30.02 in 10.0 mi North 3.5 mph - N/A   Partly Cloudy